TimePST,TemperatureF,Dew PointF,Humidity,Sea Level PressureIn,VisibilityMPH,Wind Direction,Wind SpeedMPH,Gust SpeedMPH,PrecipitationIn,Events,Conditions,WindDirDegrees,DateUTC
12:20 AM,51.8,46.4,82,30.31,10.0,Calm,Calm,-,N/A,,Overcast,0,2013-03-02 08:20:00
12:53 AM,52.0,46.9,83,30.31,10.0,ENE,3.5,-,N/A,,Overcast,70,2013-03-02 08:53:00
1:53 AM,50.0,46.9,89,30.30,10.0,Calm,Calm,-,N/A,,Overcast,0,2013-03-02 09:53:00
2:27 AM,50.0,46.4,87,30.29,10.0,East,3.5,-,N/A,,Overcast,80,2013-03-02 10:27:00
2:53 AM,50.0,46.0,86,30.28,10.0,Calm,Calm,-,N/A,,Mostly Cloudy,0,2013-03-02 10:53:00
3:28 AM,50.0,46.4,87,30.26,10.0,ENE,3.5,-,N/A,,Mostly Cloudy,60,2013-03-02 11:28:00
3:53 AM,50.0,46.0,86,30.25,10.0,Calm,Calm,-,N/A,,Overcast,0,2013-03-02 11:53:00
4:53 AM,48.9,46.0,90,30.25,10.0,East,3.5,-,N/A,,Overcast,90,2013-03-02 12:53:00
5:14 AM,48.2,44.6,87,30.24,10.0,Calm,Calm,-,N/A,,Mostly Cloudy,0,2013-03-02 13:14:00
5:23 AM,46.4,44.6,93,30.24,10.0,Calm,Calm,-,N/A,,Mostly Cloudy,0,2013-03-02 13:23:00
5:32 AM,46.4,44.6,93,30.23,10.0,East,3.5,-,N/A,,Mostly Cloudy,100,2013-03-02 13:32:00
5:53 AM,46.9,45.0,93,30.23,10.0,Calm,Calm,-,N/A,,Mostly Cloudy,0,2013-03-02 13:53:00
6:53 AM,46.0,44.1,93,30.23,10.0,East,3.5,-,N/A,,Scattered Clouds,90,2013-03-02 14:53:00
7:46 AM,46.4,44.6,93,30.21,7.0,Calm,Calm,-,N/A,,Scattered Clouds,0,2013-03-02 15:46:00
7:53 AM,46.9,45.0,93,30.22,9.0,Calm,Calm,-,N/A,,Mostly Cloudy,0,2013-03-02 15:53:00
8:40 AM,48.2,46.4,93,30.22,10.0,Calm,Calm,-,N/A,,Overcast,0,2013-03-02 16:40:00
8:53 AM,48.9,46.0,90,30.22,10.0,Calm,Calm,-,N/A,,Overcast,0,2013-03-02 16:53:00
9:53 AM,51.1,46.0,83,30.23,10.0,Calm,Calm,-,N/A,,Overcast,0,2013-03-02 17:53:00
10:00 AM,51.8,46.4,82,30.23,10.0,Calm,Calm,-,N/A,,Overcast,0,2013-03-02 18:00:00
10:53 AM,53.1,46.0,77,30.21,10.0,Calm,Calm,-,N/A,,Overcast,0,2013-03-02 18:53:00
11:18 AM,53.6,46.4,77,30.21,10.0,Calm,Calm,-,N/A,,Overcast,0,2013-03-02 19:18:00
11:33 AM,53.6,46.4,77,30.21,10.0,Calm,Calm,-,N/A,,Overcast,0,2013-03-02 19:33:00
11:53 AM,55.0,46.9,74,30.20,10.0,ESE,6.9,-,N/A,,Overcast,110,2013-03-02 19:53:00
12:39 PM,55.4,46.4,72,30.18,10.0,Calm,Calm,-,N/A,,Overcast,0,2013-03-02 20:39:00
12:53 PM,55.0,46.0,72,30.18,10.0,Calm,Calm,-,N/A,,Overcast,0,2013-03-02 20:53:00
1:53 PM,55.0,46.0,72,30.18,10.0,SW,9.2,-,N/A,,Overcast,230,2013-03-02 21:53:00
2:53 PM,55.9,46.0,69,30.17,10.0,SW,9.2,-,N/A,,Overcast,220,2013-03-02 22:53:00
3:53 PM,55.9,45.0,67,30.16,10.0,SSW,5.8,-,N/A,,Overcast,210,2013-03-02 23:53:00
4:53 PM,55.0,45.0,69,30.15,10.0,SSW,9.2,-,N/A,,Overcast,210,2013-03-03 00:53:00
5:53 PM,54.0,46.0,75,30.16,10.0,West,5.8,-,N/A,,Overcast,260,2013-03-03 01:53:00
6:35 PM,48.2,42.8,82,30.18,10.0,NW,12.7,18.4,0.01,Rain,Light Rain,320,2013-03-03 02:35:00
6:53 PM,46.0,42.1,86,30.19,2.5,NW,9.2,20.7,0.06,Rain,Rain,310,2013-03-03 02:53:00
7:01 PM,46.4,42.8,87,30.19,6.0,NW,6.9,-,0.01,Rain,Light Rain,310,2013-03-03 03:01:00
7:53 PM,46.0,39.9,79,30.21,10.0,Variable,4.6,-,0.03,Rain,Light Rain,0,2013-03-03 03:53:00
8:53 PM,46.0,39.9,79,30.22,10.0,Variable,4.6,-,0.00,,Overcast,0,2013-03-03 04:53:00
9:53 PM,45.0,37.9,76,30.25,10.0,WNW,5.8,-,N/A,,Overcast,300,2013-03-03 05:53:00
10:53 PM,43.0,37.0,80,30.25,10.0,West,9.2,-,N/A,,Clear,260,2013-03-03 06:53:00
11:53 PM,44.1,37.0,76,30.26,10.0,West,4.6,-,N/A,,Overcast,280,2013-03-03 07:53:00